Regional Weather Roundup
Issued by NWS

Home | Current Version | Previous Version | Graphics & Text | Print | Product List | Glossary On
Versions: 1 2 3 4 5 6 7 8 9 10 11 12 13 14 15 16 17 18 19 20 21 22 23 24 25 26 27 28 29 30 31 32 33 34 35 36 37 38 39 40 41 42 43 44 45 46 47 48 49 50
000
ASUS45 KBOU 030007
RWRCO

WEATHER ROUNDUP FOR COLORADO
NATIONAL WEATHER SERVICE DENVER/BOULDER CO
500 PM MST MON MAR 02 2015

NOTE: "FAIR" INDICATES FEW OR NO CLOUDS BELOW 12000 FEET WITH NO
SIGNIFICANT WEATHER AND/OR OBSTRUCTIONS TO VISIBILITY.

COZ001>005-013-030-031-030100-
...NORTHWEST COLORADO...

CITY           SKY/WX    TMP DP  RH WIND       PRES   REMARKS
CRAIG          LGT RAIN  42  34  73 SW17G29   29.59S
HAYDEN         CLOUDY    43  28  56 SW10      29.56F
MEEKER         LGT SNOW  35  32  88 W14       29.65R FOG     WCI  26
MOUNT WERNER   NOT AVBL
STEAMBOAT SPGS CLOUDY    42  30  61 SE12G25   29.58F
WALDEN         MOCLDY    37  27  65 S16G22    29.61F
$$

COZ006>008-011-030100-
...WEST CENTRAL VALLEYS...

CITY           SKY/WX    TMP DP  RH WIND       PRES   REMARKS
GRAND JUNCTION CLOUDY    42  37  82 W12       29.69R
MONTROSE       NOT AVBL
EAGLE          CLOUDY    45  36  70 CALM      29.62F
RIFLE          RAIN      41  38  89 W18       29.64R FOG
DELTA          CLOUDY    48  40  74 SW10G16   29.68R
NUCLA          RAIN      37  36  93 W12       29.78R
$$

COZ017>023-064>068-030100-
...SOUTHWEST COLORADO...

CITY           SKY/WX    TMP DP  RH WIND       PRES   REMARKS
DURANGO        NOT AVBL
CORTEZ         RAIN      40  36  86 SW13G22   29.80R FOG
PAGOSA SPRINGS RAIN      39  37  94 SW12      29.80F
TELLURIDE      LGT SNOW  34  32  93 SE12      29.75F WCI  25
WOLF CREEK PAS CLOUDY    25  25 100 SW43G66   29.80F WCI   5
$$

COZ009-010-012-014-032>034-037-058>063-030100-
...CENTRAL COLORADO...

CITY           SKY/WX    TMP DP  RH WIND       PRES   REMARKS
ASPEN          CLOUDY    43  25  49 S10G18    29.62F
BUENA VISTA    CLOUDY    41  28  61 SE15      29.67F
COPPER MTN     CLOUDY    32  18  55 S20G25    29.74F WCI  20
BERTHOUD PASS  CLOUDY    23  18  80 SW8G24    29.78F WCI  14
COTTONWOOD PAS CLOUDY    41  21  45 SW14G21   29.72F
GUNNISON       NOT AVBL
KREMMLING      CLOUDY    39  30  70 W7        29.63F
LEADVILLE      CLOUDY    33  18  53 S10       29.69F WCI  25
SALIDA         CLOUDY    45  31  59 S17       29.76F
SUNLIGHT       SNOW      30  30 100 CALM        N/A  VSB 1/4
WILKERSON PASS MOCLDY    30  23  74 SW8       29.77F WCI  23
$$

COZ069>075-030100-
...SAN LUIS VALLEY/SANGRE DE CRISTO MOUNTAINS...

CITY           SKY/WX    TMP DP  RH WIND       PRES   REMARKS
ALAMOSA        LGT RAIN  39  30  70 S23G31    29.76F
LA VETA PASS   CLOUDY    32  28  86 S18G43    29.77F WCI  20
SAGUACHE       LGT RAIN  36  34  93 S14G23    29.76S
$$

COZ035-036-038>040-030100-
...NORTHERN COLORADO FRONT RANGE...

CITY           SKY/WX    TMP DP  RH WIND       PRES   REMARKS
DENVER INTL AP MOCLDY    32  24  72 N5        29.63F HAZE    WCI  27
DMNS CITY PARK   N/A     33  22  64 NE5       29.63F WCI  29
AURORA         MOCLDY    32  22  67 SE2       29.63F
FRONT RANGE AP NOT AVBL
ERIE MUNI ARPT MOCLDY    32  23  70 CALM      29.64F
BOULDER MUN AP MOCLDY    32  23  69 CALM      29.63F HAZE
CENTENNIAL     MOCLDY    38  25  59 NE3       29.62F HAZE
BROOMFIELD     MOCLDY    32  25  74 N6        29.64F HAZE    WCI  26
FORT COLLINS   CLOUDY    32  25  74 S7        29.66F WCI  26
LONGMONT       CLOUDY    35  24  62 W3        29.66F
$$

COZ041-046-047-076>085-087-088-030100-
...PIKES PEAK/PALMER DIVIDE AND SOUTHERN FOOTHILLS...

CITY           SKY/WX    TMP DP  RH WIND       PRES   REMARKS
COLO. SPRINGS  CLOUDY    34  26  72 CALM      29.71F
A. F. ACADEMY  MOCLDY    33  25  72 S6        29.69F WCI  28
ELLICOTT       NOT AVBL
FALCON         PTCLDY    32  26  77 NE3       29.72F
FORT CARSON    PTCLDY    34  28  77 N5        29.70F WCI  30
LIMON          MOCLDY    30  26  85 S18       29.70F WCI  18
MONUMENT HILL  PTCLDY    37  27  65 S14G22    29.67F
TRINIDAD       CLOUDY    44  32  62 W20       29.72F
$$

COZ042>045-048>051-090-091-030100-
...NORTHEAST COLORADO...

CITY           SKY/WX    TMP DP  RH WIND       PRES   REMARKS
GREELEY ARPT   CLOUDY    37  23  56 SW5       29.63F
AKRON          CLOUDY    34  28  79 SE16      29.66F WCI  24
BURLINGTON     CLOUDY    33  29  85 S20G30    29.74F WCI  21
WRAY           CLOUDY    34  29  82 SE14G20   29.75F WCI  24
STERLING       CLOUDY    34  28  80 SE13G20   29.67F WCI  25
HOLYOKE        NOT AVBL
FORT MORGAN    CLOUDY    41  28  59 SE8       29.63F
$$

COZ086-089-092>099-030100-
...SOUTHEAST COLORADO...

CITY           SKY/WX    TMP DP  RH WIND       PRES   REMARKS
PUEBLO         NOT AVBL
LA JUNTA       CLOUDY    40  31  70 N7        29.72F
LAMAR          CLOUDY    39  32  76 E9        29.70F
SPRINGFIELD      N/A     35  30  82 S29       29.76F WCI  22
$$


USA.gov is the U.S. government's official web portal to all federal, state and local government web resources and services.